Location: C�mpuri de-Sus
(45.9500°N, 22.5500°E)
Time: 12:21:56
(UTC+00:00)

Cosmos 2278 Rocket - Pass Details

Date: 01 June 2022
Orbit: 840 x 846 km, 71.0° (Epoch: 01 July)

Event Time Altitude Azimuth Distance (km) Brightness Sun altitude
Rises 22:12:00 0° 330° (NNW) 3,417 6.4 -21.8°
Reaches altitude 10° 22:14:30 10° 326° (NW) 2,477 5.4 -21.8°
Maximum altitude 22:20:02 55° 250° (WSW) 1,009 2.4 -21.9°
Enters shadow 22:21:23 44° 204° (SSW) 1,151 2.5 -21.9°
